K0QJ Weather Reports


time (UTC)temp
C
wind
direction
speed
KPH
gust
KPH
rain 1hr
cm
rain 24hr
cm
rain mn
cm
humidity
%
barometer
mb
20260507180356 17 121 4.8 8.0 0.00 0.00 0.00 54 1013.4
20260507175852 17 240 4.8 9.7 0.00 0.00 0.00 56 1013.5
20260507175349 17 217 4.8 4.8 0.00 0.00 0.00 53 1013.5
20260507174847 17 358 1.6 3.2 0.00 0.00 0.00 55 1013.6
20260507174344 16 357 1.6 1.6 0.00 0.00 0.00 56 1013.5
20260507173841 17 174 6.4 9.7 0.00 0.00 0.00 54 1013.7
20260507173338 17 238 3.2 4.8 0.00 0.00 0.00 54 1013.9
20260507172834 17 226 8.0 12.9 0.00 0.00 0.00 56 1013.8
20260507172331 16 101 4.8 4.8 0.00 0.00 0.00 55 1013.9
20260507171827 17 58 1.6 1.6 0.00 0.00 0.00 54 1014.1
20260507171324 17 301 1.6 1.6 0.00 0.00 0.00 56 1014.0
20260507170821 17 213 3.2 3.2 0.00 0.00 0.00 54 1014.1
20260507170317 16 230 3.2 3.2 0.00 0.00 0.00 56 1014.2
20260507165813 16 302 9.7 12.9 0.00 0.00 0.00 55 1014.1
20260507165310 16 230 3.2 4.8 0.00 0.00 0.00 56 1014.3
20260507164806 16 151 3.2 4.8 0.00 0.00 0.00 58 1014.6
20260507164303 16 234 4.8 8.0 0.00 0.00 0.00 57 1014.3
20260507163800 16 267 4.8 9.7 0.00 0.00 0.00 57 1014.4
20260507163258 16 221 8.0 11.3 0.00 0.00 0.00 55 1014.7
20260507162753 16 237 3.2 3.2 0.00 0.00 0.00 57 1014.6
20260507162249 17 192 3.2 4.8 0.00 0.00 0.00 56 1014.7
20260507161747 16 0 1.6 3.2 0.00 0.00 0.00 56 1014.7
20260507161243 16 178 4.8 9.7 0.00 0.00 0.00 55 1014.8
20260507160739 17 149 3.2 4.8 0.00 0.00 0.00 54 1014.6
20260507160236 16 269 3.2 4.8 0.00 0.00 0.00 58 1014.7
20260507155732 17 159 4.8 8.0 0.00 0.00 0.00 57 1014.8
20260507155228 17 7 3.2 4.8 0.00 0.00 0.00 57 1014.5
20260507154725 16 255 4.8 4.8 0.00 0.00 0.00 57 1015.1
20260507154222 16 239 1.6 3.2 0.00 0.00 0.00 58 1015.1
20260507153718 16 26 0.0 0.0 0.00 0.00 0.00 58 1014.9
20260507153215 16 270 4.8 8.0 0.00 0.00 0.00 58 1015.1
20260507152712 16 234 4.8 4.8 0.00 0.00 0.00 57 1015.2
20260507152207 16 329 3.2 4.8 0.00 0.00 0.00 59 1015.1
20260507151704 15 345 4.8 9.7 0.00 0.00 0.00 58 1015.1
20260507151201 15 195 6.4 8.0 0.00 0.00 0.00 59 1015.3
20260507150658 16 167 1.6 3.2 0.00 0.00 0.00 58 1015.4
20260507150154 16 189 1.6 3.2 0.00 0.00 0.00 59 1015.9
20260507145650 15 219 3.2 4.8 0.00 0.00 0.00 60 1015.3
20260507145147 15 182 1.6 3.2 0.00 0.00 0.00 61 1015.6
20260507144643 15 208 3.2 3.2 0.00 0.00 0.00 61 1015.6
20260507144142 15 49 0.0 1.6 0.00 0.00 0.00 61 1015.4
20260507143638 14 99 1.6 3.2 0.00 0.00 0.00 62 1015.5
20260507143135 13 199 3.2 4.8 0.00 0.00 0.00 63 1015.6
20260507142631 13 203 3.2 3.2 0.00 0.00 0.00 63 1015.6
20260507142128 13 242 1.6 3.2 0.00 0.00 0.00 66 1015.5
20260507141624 13 355 1.6 3.2 0.00 0.00 0.00 66 1015.6
20260507141121 12 66 0.0 1.6 0.00 0.00 0.00 67 1016.0
20260507140617 12 221 0.0 1.6 0.00 0.00 0.00 67 1015.9
20260507140115 12 229 4.8 9.7 0.00 0.00 0.00 68 1015.9
20260507135612 12 64 1.6 3.2 0.00 0.00 0.00 69 1015.9
20260507135109 12 312 1.6 3.2 0.00 0.00 0.00 70 1015.9
20260507134605 11 240 3.2 3.2 0.00 0.00 0.00 70 1015.7
20260507134102 11 196 4.8 4.8 0.00 0.00 0.00 70 1015.9
20260507133557 11 323 0.0 1.6 0.00 0.00 0.00 71 1015.7
20260507133055 11 206 4.8 4.8 0.00 0.00 0.00 72 1016.0
20260507132552 11 199 1.6 1.6 0.00 0.00 0.00 72 1016.0
20260507132048 11 346 1.6 1.6 0.00 0.00 0.00 72 1015.6
20260507131545 11 205 6.4 8.0 0.00 0.00 0.00 72 1016.1
20260507131043 10 227 3.2 3.2 0.00 0.00 0.00 73 1015.7
20260507130539 10 238 1.6 3.2 0.00 0.00 0.00 73 1016.1
20260507130038 10 294 1.6 1.6 0.00 0.00 0.00 73 1015.9
20260507125536 10 334 1.6 1.6 0.00 0.00 0.00 74 1016.4
20260507125033 10 279 1.6 1.6 0.00 0.00 0.00 73 1016.4
20260507124529 10 0 1.6 1.6 0.00 0.00 0.00 74 1016.2
20260507124027 10 25 0.0 1.6 0.00 0.00 0.00 74 1016.1
20260507123525 10 19 0.0 1.6 0.00 0.00 0.00 74 1016.2
20260507123022 9 11 1.6 1.6 0.00 0.00 0.00 74 1015.9
20260507122517 9 272 1.6 1.6 0.00 0.00 0.00 74 1016.2
20260507122013 8 12 1.6 1.6 0.00 0.00 0.00 74 1016.2
20260507121509 8 311 0.0 1.6 0.00 0.00 0.00 74 1016.2
20260507121004 8 349 0.0 0.0 0.00 0.00 0.00 75 1016.1
20260507120501 8 311 1.6 1.6 0.00 0.00 0.00 75 1016.0
20260507115958 8 6 0.0 0.0 0.00 0.00 0.00 75 1016.1
20260507115454 8 5 0.0 0.0 0.00 0.00 0.00 74 1016.1
20260507114950 8 25 0.0 0.0 0.00 0.00 0.00 73 1015.9
20260507114446 8 4 0.0 0.0 0.00 0.00 0.00 73 1016.0
20260507113944 8 309 1.6 1.6 0.00 0.00 0.00 72 1016.1
20260507113441 8 338 1.6 1.6 0.00 0.00 0.00 71 1016.1
20260507112938 8 338 0.0 1.6 0.00 0.00 0.00 71 1015.9
20260507112435 8 338 0.0 1.6 0.00 0.00 0.00 71 1015.9
20260507111932 8 333 0.0 0.0 0.00 0.00 0.00 71 1015.7
20260507111430 8 341 0.0 1.6 0.00 0.00 0.00 70 1015.5
20260507110926 8 309 1.6 1.6 0.00 0.00 0.00 70 1015.6
20260507110422 8 15 0.0 0.0 0.00 0.00 0.00 70 1016.0
20260507105919 8 341 0.0 0.0 0.00 0.00 0.00 69 1016.1
20260507105416 8 348 0.0 0.0 0.00 0.00 0.00 68 1015.7
20260507104912 8 358 0.0 0.0 0.00 0.00 0.00 68 1015.7
20260507104409 8 353 0.0 0.0 0.00 0.00 0.00 67 1015.5
20260507103905 8 306 1.6 1.6 0.00 0.00 0.00 66 1015.7
20260507103402 8 355 0.0 0.0 0.00 0.00 0.00 66 1015.7
20260507102858 8 342 0.0 0.0 0.00 0.00 0.00 65 1015.7
20260507102354 8 232 1.6 3.2 0.00 0.00 0.00 65 1015.7
20260507101850 9 297 1.6 1.6 0.00 0.00 0.00 64 1015.7
20260507101345 9 323 0.0 0.0 0.00 0.00 0.00 63 1016.1
20260507100842 9 268 1.6 1.6 0.00 0.00 0.00 63 1015.6
20260507100341 9 341 1.6 3.2 0.00 0.00 0.00 62 1015.9
20260507095838 9 305 1.6 1.6 0.00 0.00 0.00 62 1015.9
20260507095335 9 278 1.6 1.6 0.00 0.00 0.00 61 1015.9
20260507094832 9 288 1.6 1.6 0.00 0.00 0.00 60 1015.7
20260507094328 9 5 1.6 1.6 0.00 0.00 0.00 60 1016.2
20260507093825 9 291 1.6 1.6 0.00 0.00 0.00 60 1016.1
20260507093324 9 287 1.6 1.6 0.00 0.00 0.00 61 1016.1
20260507092821 9 355 0.0 0.0 0.00 0.00 0.00 61 1015.9
20260507092318 9 334 1.6 1.6 0.00 0.00 0.00 60 1016.0
20260507091814 9 282 1.6 1.6 0.00 0.00 0.00 60 1016.3
20260507091311 9 277 1.6 3.2 0.00 0.00 0.00 60 1016.1
20260507090805 9 351 0.0 1.6 0.00 0.00 0.00 60 1016.2
20260507090302 9 309 1.6 1.6 0.00 0.00 0.00 59 1016.2
20260507085759 9 245 1.6 1.6 0.00 0.00 0.00 59 1016.2
20260507085256 9 314 1.6 3.2 0.00 0.00 0.00 59 1015.9
20260507084754 9 294 1.6 1.6 0.00 0.00 0.00 59 1016.3
20260507084250 9 351 0.0 0.0 0.00 0.00 0.00 59 1016.1
20260507083748 10 249 1.6 3.2 0.00 0.00 0.00 58 1016.2
20260507083244 10 251 1.6 1.6 0.00 0.00 0.00 57 1016.2
20260507082740 10 213 1.6 3.2 0.00 0.00 0.00 57 1016.2
20260507082236 10 254 1.6 1.6 0.00 0.00 0.00 57 1016.1
20260507081733 10 249 3.2 3.2 0.00 0.00 0.00 57 1015.7
20260507081229 10 245 1.6 1.6 0.00 0.00 0.00 57 1016.1
20260507080726 10 331 0.0 1.6 0.00 0.00 0.00 57 1016.1
20260507080222 10 349 0.0 0.0 0.00 0.00 0.00 57 1016.1
20260507075717 10 339 0.0 1.6 0.00 0.00 0.00 57 1016.0
20260507075214 10 299 1.6 1.6 0.00 0.00 0.00 57 1015.9
20260507074710 10 304 1.6 1.6 0.00 0.00 0.00 57 1016.2
20260507074209 9 285 0.0 1.6 0.00 0.00 0.00 58 1016.2
20260507073705 9 316 1.6 1.6 0.00 0.00 0.00 59 1016.2
20260507073201 9 8 0.0 0.0 0.00 0.00 0.00 60 1016.1
20260507072659 9 4 0.0 0.0 0.00 0.00 0.00 59 1016.0
20260507072156 9 4 0.0 0.0 0.00 0.00 0.00 58 1016.3
20260507071654 10 10 0.0 0.0 0.00 0.00 0.00 57 1016.4
20260507071150 10 355 0.0 0.0 0.00 0.00 0.00 57 1016.3
20260507070647 10 355 0.0 0.0 0.00 0.00 0.00 57 1016.6
20260507070144 10 345 1.6 1.6 0.00 0.00 0.00 56 1016.4
20260507065640 10 343 0.0 0.0 0.00 0.00 0.00 55 1016.7
20260507065137 10 326 0.0 1.6 0.00 0.00 0.00 55 1016.7
20260507064635 10 328 1.6 3.2 0.00 0.00 0.00 54 1016.7
20260507064133 10 268 1.6 1.6 0.00 0.00 0.00 54 1016.8
20260507063630 10 346 0.0 0.0 0.00 0.00 0.00 55 1016.7
20260507063127 10 340 0.0 0.0 0.00 0.00 0.00 56 1016.8
20260507062624 10 320 0.0 1.6 0.00 0.00 0.00 58 1016.7
20260507062122 10 26 0.0 0.0 0.00 0.00 0.00 60 1016.8
20260507061619 10 26 0.0 0.0 0.00 0.00 0.00 60 1016.7
20260507061117 10 26 0.0 0.0 0.00 0.00 0.00 61 1016.7
20260507060615 10 26 0.0 0.0 0.00 0.00 0.00 60 1016.9
20260507060111 10 26 0.0 0.0 0.00 0.00 0.00 61 1016.7
20260507055606 10 27 0.0 0.0 0.00 0.00 0.00 62 1016.8
20260507055103 10 24 0.0 0.0 0.00 0.00 0.00 62 1016.7
20260507054559 10 24 0.0 0.0 0.00 0.00 0.00 59 1016.7
20260507054056 9 24 0.0 0.0 0.00 0.00 0.00 59 1016.9
20260507053554 9 24 0.0 0.0 0.00 0.00 0.00 60 1016.9
20260507053052 9 24 0.0 0.0 0.00 0.00 0.00 60 1016.8
20260507052550 9 24 0.0 0.0 0.00 0.00 0.00 61 1016.7
20260507052046 9 24 0.0 0.0 0.00 0.00 0.00 62 1016.8
20260507051544 9 25 0.0 0.0 0.00 0.00 0.00 63 1016.8
20260507051040 8 20 0.0 0.0 0.00 0.00 0.00 62 1016.8
20260507050537 8 19 0.0 0.0 0.00 0.00 0.00 62 1017.0
20260507050033 8 22 0.0 0.0 0.00 0.00 0.00 63 1016.8
20260507045530 8 49 1.6 1.6 0.00 0.00 0.00 63 1016.8
20260507045027 8 40 1.6 1.6 0.00 0.00 0.00 62 1016.9
20260507044524 9 33 0.0 1.6 0.00 0.00 0.00 62 1016.9
20260507044021 9 32 0.0 0.0 0.00 0.00 0.00 61 1016.8
20260507043517 9 43 0.0 1.6 0.00 0.00 0.00 60 1016.7
20260507043015 9 46 0.0 1.6 0.00 0.00 0.00 62 1016.8
20260507042510 9 46 0.0 1.6 0.00 0.00 0.00 61 1017.0
20260507042006 9 62 1.6 1.6 0.00 0.00 0.00 61 1016.8
20260507041503 9 33 1.6 1.6 0.00 0.00 0.00 59 1016.6
20260507041000 9 26 0.0 0.0 0.00 0.00 0.00 61 1016.7
20260507040456 9 47 1.6 1.6 0.00 0.00 0.00 61 1017.1
20260507035951 9 24 0.0 0.0 0.00 0.00 0.00 59 1017.0
20260507035448 9 24 0.0 0.0 0.00 0.00 0.00 60 1017.0
20260507034945 9 24 0.0 0.0 0.00 0.00 0.00 60 1017.3
20260507034442 9 24 0.0 0.0 0.00 0.00 0.00 57 1017.0
20260507033940 9 24 0.0 0.0 0.00 0.00 0.00 56 1016.9
20260507033438 10 24 0.0 0.0 0.00 0.00 0.00 61 1016.9
20260507032934 10 24 0.0 0.0 0.00 0.00 0.00 57 1016.9
20260507032432 10 24 0.0 0.0 0.00 0.00 0.00 56 1016.9
20260507031927 10 24 0.0 0.0 0.00 0.00 0.00 54 1016.8
20260507031426 10 24 0.0 0.0 0.00 0.00 0.00 54 1016.9
20260507030921 10 24 0.0 0.0 0.00 0.00 0.00 53 1016.8
20260507030418 10 24 0.0 0.0 0.00 0.00 0.00 53 1017.0
20260507025915 10 24 0.0 0.0 0.00 0.00 0.00 53 1017.0
20260507025413 10 24 0.0 0.0 0.00 0.00 0.00 52 1016.9
20260507024910 10 24 0.0 0.0 0.00 0.00 0.00 51 1016.9
20260507024407 10 24 0.0 0.0 0.00 0.00 0.00 51 1016.8
20260507023903 10 24 0.0 0.0 0.00 0.00 0.00 51 1016.6
20260507023400 10 24 0.0 0.0 0.00 0.00 0.00 55 1016.6
20260507022857 10 24 0.0 0.0 0.00 0.00 0.00 50 1016.8
20260507022354 10 24 0.0 0.0 0.00 0.00 0.00 52 1016.6
20260507021850 10 24 0.0 0.0 0.00 0.00 0.00 51 1016.7
20260507021345 10 25 0.0 1.6 0.00 0.00 0.00 52 1016.5
20260507020843 10 24 0.0 0.0 0.00 0.00 0.00 52 1016.4
20260507020339 11 24 0.0 0.0 0.00 0.00 0.00 51 1016.5
20260507015837 11 24 0.0 0.0 0.00 0.00 0.00 51 1016.4
20260507015335 11 24 0.0 0.0 0.00 0.00 0.00 49 1016.3
20260507014831 11 23 0.0 0.0 0.00 0.00 0.00 48 1016.2
20260507014328 11 24 0.0 0.0 0.00 0.00 0.00 46 1016.3
20260507013824 12 2 0.0 0.0 0.00 0.00 0.00 47 1016.4
20260507013321 12 2 0.0 0.0 0.00 0.00 0.00 43 1016.2
20260507012819 12 0 0.0 0.0 0.00 0.00 0.00 41 1016.3
20260507012314 13 359 0.0 0.0 0.00 0.00 0.00 41 1016.2
20260507011806 13 2 0.0 0.0 0.00 0.00 0.00 40 1016.1
20260507011303 13 3 0.0 1.6 0.00 0.00 0.00 40 1016.2
20260507010802 13 335 1.6 1.6 0.00 0.00 0.00 38 1016.1
20260507010259 13 358 0.0 0.0 0.00 0.00 0.00 40 1016.1
20260507005756 13 336 3.2 3.2 0.00 0.00 0.00 37 1015.9
20260507005252 13 330 3.2 4.8 0.00 0.00 0.00 37 1015.6
20260507004749 14 342 1.6 1.6 0.00 0.00 0.00 37 1015.6
20260507004247 14 338 1.6 1.6 0.00 0.00 0.00 36 1016.0
20260507003743 14 345 3.2 3.2 0.00 0.00 0.00 37 1015.9
20260507003238 14 38 4.8 4.8 0.00 0.00 0.00 36 1015.7
20260507002734 15 353 8.0 8.0 0.00 0.00 0.00 36 1015.9
20260507002231 14 339 8.0 9.7 0.00 0.00 0.00 35 1016.1
20260507001727 15 1 4.8 9.7 0.00 0.00 0.00 36 1015.9
20260507001225 15 267 3.2 3.2 0.00 0.00 0.00 36 1015.7
20260507000721 14 345 1.6 1.6 0.00 0.00 0.00 37 1015.7
20260507000217 14 14 1.6 1.6 0.00 0.00 0.00 38 1015.9
20260506235714 15 348 3.2 3.2 0.00 0.00 0.00 36 1015.9
20260506235209 15 15 1.6 1.6 0.00 0.00 0.00 36 1015.9
20260506234706 14 286 3.2 3.2 0.00 0.00 0.00 35 1015.9
20260506234204 15 330 4.8 4.8 0.00 0.00 0.00 35 1016.0
20260506233701 15 3 1.6 1.6 0.00 0.00 0.00 36 1015.7
20260506233157 15 8 3.2 3.2 0.00 0.00 0.00 36 1016.0
20260506232654 15 344 6.4 8.0 0.00 0.00 0.00 35 1016.0
20260506232149 15 338 4.8 8.0 0.00 0.00 0.00 35 1015.9
20260506231646 15 343 4.8 8.0 0.00 0.00 0.00 35 1015.6
20260506231145 15 337 6.4 8.0 0.00 0.00 0.00 35 1015.7
20260506230641 15 357 8.0 9.7 0.00 0.00 0.00 34 1015.6
20260506230138 15 17 0.0 0.0 0.00 0.00 0.00 36 1015.6
20260506225635 15 10 0.0 1.6 0.00 0.00 0.00 36 1015.7
20260506225132 15 281 3.2 3.2 0.00 0.00 0.00 35 1015.7
20260506224628 15 326 3.2 3.2 0.00 0.00 0.00 36 1015.6
20260506224125 15 354 4.8 4.8 0.00 0.00 0.00 35 1015.7
20260506223621 15 15 4.8 4.8 0.00 0.00 0.00 36 1016.0
20260506223117 15 2 3.2 4.8 0.00 0.00 0.00 35 1015.9
20260506222614 15 340 4.8 4.8 0.00 0.00 0.00 36 1016.0
20260506222110 15 354 1.6 3.2 0.00 0.00 0.00 38 1015.9
20260506221608 15 340 0.0 1.6 0.00 0.00 0.00 37 1015.7
20260506221106 15 1 1.6 1.6 0.00 0.00 0.00 37 1016.0
20260506220602 15 10 1.6 1.6 0.00 0.00 0.00 36 1016.1
20260506220057 15 352 3.2 4.8 0.00 0.00 0.00 37 1016.0
20260506215554 15 151 1.6 4.8 0.00 0.00 0.00 37 1016.2
20260506215050 15 357 3.2 4.8 0.00 0.00 0.00 36 1015.7
20260506214547 15 355 1.6 1.6 0.00 0.00 0.00 38 1016.2
20260506214044 15 338 0.0 1.6 0.00 0.00 0.00 37 1016.2
20260506213543 15 18 1.6 1.6 0.00 0.00 0.00 37 1016.0
20260506213040 15 2 4.8 4.8 0.00 0.00 0.00 38 1016.2
20260506212536 15 338 6.4 9.7 0.00 0.00 0.00 34 1016.2
20260506212031 15 324 6.4 8.0 0.00 0.00 0.00 35 1016.2
20260506211527 15 326 4.8 4.8 0.00 0.00 0.00 36 1016.4
20260506211025 15 349 1.6 3.2 0.00 0.00 0.00 36 1016.2
20260506210521 15 2 1.6 3.2 0.00 0.00 0.00 37 1016.5
20260506210018 15 340 4.8 8.0 0.00 0.00 0.00 36 1016.5
20260506205515 15 358 1.6 1.6 0.00 0.00 0.00 37 1016.8
20260506205010 15 24 9.7 14.5 0.00 0.00 0.00 34 1016.8
20260506204508 15 1 4.8 9.7 0.00 0.00 0.00 37 1016.9
20260506204005 16 355 1.6 1.6 0.00 0.00 0.00 36 1016.7
20260506203503 15 351 0.0 0.0 0.00 0.00 0.00 38 1016.9
20260506202959 15 329 8.0 16.1 0.00 0.00 0.00 35 1016.9
20260506202456 15 353 3.2 3.2 0.00 0.00 0.00 34 1017.0
20260506201952 15 23 1.6 1.6 0.00 0.00 0.00 38 1017.2
20260506201450 15 3 3.2 3.2 0.00 0.00 0.00 38 1016.9
20260506200947 15 325 4.8 8.0 0.00 0.00 0.00 35 1017.3
20260506200443 15 329 3.2 3.2 0.00 0.00 0.00 35 1017.1
20260506195939 15 6 1.6 3.2 0.00 0.00 0.00 39 1017.1
20260506195437 15 269 3.2 4.8 0.00 0.00 0.00 37 1017.3
20260506194933 15 332 4.8 8.0 0.00 0.00 0.00 37 1017.4
20260506194431 15 301 8.0 11.3 0.00 0.00 0.00 36 1017.4
20260506193927 15 71 4.8 4.8 0.00 0.00 0.00 35 1017.4
20260506193424 16 24 3.2 3.2 0.00 0.00 0.00 35 1017.3
20260506192921 16 349 1.6 3.2 0.00 0.00 0.00 37 1017.6
20260506192418 15 358 0.0 1.6 0.00 0.00 0.00 40 1017.3
20260506191915 15 359 1.6 1.6 0.00 0.00 0.00 38 1017.1
20260506191411 15 342 4.8 4.8 0.00 0.00 0.00 38 1017.3
20260506190908 14 28 6.4 9.7 0.00 0.00 0.00 38 1017.3
20260506190404 15 337 0.0 1.6 0.00 0.00 0.00 39 1017.5
20260506185901 15 20 0.0 0.0 0.00 0.00 0.00 40 1017.5
20260506185359 14 322 6.4 8.0 0.00 0.00 0.00 37 1017.7
20260506184856 14 18 4.8 8.0 0.00 0.00 0.00 37 1017.8
20260506184353 14 22 6.4 9.7 0.00 0.00 0.00 36 1017.7
20260506183850 15 310 3.2 3.2 0.00 0.00 0.00 38 1017.6
20260506183345 13 352 4.8 4.8 0.00 0.00 0.00 38 1017.9
20260506182843 13 330 4.8 8.0 0.00 0.00 0.00 37 1017.7
20260506182339 13 295 8.0 11.3 0.00 0.00 0.00 39 1017.8
20260506181837 13 304 3.2 3.2 0.00 0.00 0.00 39 1018.1
20260506181335 13 299 4.8 8.0 0.00 0.00 0.00 41 1018.2
20260506180832 13 329 8.0 9.7 0.00 0.00 0.00 39 1017.9